Location: Newark
(31.5000°N, 18.0000°E)
Time: 14:05:36
(UTC+00:00)

Envisat - Visible Passes

Search period start: 27 September 2020 00:00
Search period end: 07 October 2020 00:00
Orbit: 764 x 766 km, 98.1° (Epoch: 27 September)

Date Brightness Start Highest point End Pass type
(mag) Time Alt. Az. Time Alt. Az. Time Alt. Az.
27 Sep 5.5 04:00:30 10° NE 04:04:46 27° E 04:09:00 10° SSE visible
28 Sep 6.7 03:26:58 10° E 03:27:42 10° E 03:28:26 10° E visible
29 Sep 6.1 17:15:12 10° SW 17:18:37 18° W 17:22:03 10° NW visible
30 Sep 5.9 03:49:35 10° NE 03:53:20 21° E 03:57:04 10° SE visible
02 Oct 4.8 04:14:10 10° NNE 04:18:53 38° E 04:23:35 10° SSE visible
02 Oct 5.8 17:03:10 10° SSW 17:07:11 24° W 17:11:14 10° NW visible
03 Oct 6.2 03:38:54 10° ENE 03:41:54 16° E 03:44:53 10° SE visible
04 Oct 6.4 17:30:47 10° WSW 17:32:48 12° W 17:34:50 10° WNW visible
05 Oct 5.3 04:03:05 10° NE 04:07:29 29° E 04:11:52 10° SSE visible
05 Oct 5.2 16:51:19 10° SSW 16:55:46 31° W 17:00:14 10° NW visible
06 Oct 6.5 03:28:43 10° ENE 03:30:27 12° E 03:32:10 10° ESE visible
